Zurück zum Katalog

FENGYUN 1C DEB

AktivPO
NORAD 31231·DEBRIS·🇨🇳 China

Gestartet May 10, 1999 von Taiyuan Satellite Launch Center

Loading…

Nächste Überflüge (nächste 24 Stunden)

TLE

AlterndSource: Space-Track

Epoche: Sep 10, 2026, 05:54 UTC

1 31231U 99025BLM 26253.24641326  .00011448  00000-0  11113-2 0  9998
2 31231  98.8662  86.6102 0118039 326.1507  33.2210 14.87682514670437

Verfolge FENGYUN 1C DEB in Echtzeit mit AllMySat

Download on the App Store